Regional Weather Roundup
Issued by NWS

Home | Current Version | Previous Version | Text Only | Print | Product List | Glossary Off
Versions: 1 2 3 4 5 6 7 8 9 10 11 12 13 14 15 16 17 18 19 20 21 22 23 24 25 26 27 28 29 30 31 32 33 34 35 36 37 38 39 40 41 42 43 44 45 46 47 48 49 50

000
ASUS45 KABQ 270201
RWRNM
WEATHER ROUNDUP FOR NEW MEXICO
NATIONAL WEATHER SERVICE ALBUQUERQUE NM
800 PM MDT THU MAR 26 2015

NOTE: "FAIR" MEANS FEW OR NO CLOUDS BELOW 12,000 FEET AGL WITH NO
       SIGNIFICANT WEATHER OR OBSTRUCTIONS TO VISION.

      THIS PRODUCT IS RELEASED AS TWO VERSIONS.  ONE VERSION NEAR
      THE TOP OF THE HOUR CONTAINING PRELIMINARY DATA FROM ALBUQUERQUE
      AND OTHER STATIONS.  A FINAL VERSION WITH ADDITIONAL DATA IS
      ISSUED ABOUT 10 MINUTES AFTER THE HOUR.

NMZ501-503-504-510>518-270300-
NORTHWEST PLATEAU/NORTHCENTRAL MOUNTAINS

CITY           SKY/WX    TMP DP  RH WIND       PRES   REMARKS
FARMINGTON     CLEAR     57  11  16 W16G24    30.22R
SANTA FE       CLEAR     53   8  16 W9        30.20S
TAOS           PTCLDY    48  16  27 S6        30.23S
ANGEL FIRE     FAIR      42  18  38 NW8       30.27R

$$
NMZ402-403-502-505>509-270300-
WESTCENTRAL MOUNTAINS/SOUTHWEST MOUNTAINS

CITY           SKY/WX    TMP DP  RH WIND       PRES   REMARKS
GALLUP         CLEAR     58  12  16 N7        30.28R
GRANTS         PTCLDY    48  12  23 NW7       30.28R

$$
NMZ407-409-411-412-270300-
SOUTHERN DESERTS

CITY           SKY/WX    TMP DP  RH WIND       PRES   REMARKS
DEMING         CLEAR     61  23  23 S5        30.20R
ALAMOGORDO     PTCLDY    57  18  21 NE6       30.20S
T OR C         CLEAR     62  14  15 SW3       30.20R

$$
NMZ519>523-270300-
CENTRAL VALLEYS/CENTRAL HIGHLANDS

CITY           SKY/WX    TMP DP  RH WIND       PRES   REMARKS
ALBUQUERQUE    PTCLDY    58  18  21 S6        30.21R
DOUBLE EAGLE   PTCLDY    52  18  25 S5        30.24R
MORIARTY ARPT  FAIR      46  13  26 SW7       30.23S
CLINES CORNERS CLEAR     44  17  33 W10       30.23R
BELEN          FAIR      57  17  21 SE5       30.21R
SOCORRO        FAIR      55  17  22 S6        30.19S

$$
NMZ524>526-539-540-270300-
SOUTHCENTRAL MOUNTAINS

CITY           SKY/WX    TMP DP  RH WIND       PRES   REMARKS
RUIDOSO        NOT AVBL

$$
NMZ527>531-270300-
NORTHEAST HIGHLANDS/NORTHEAST PLAINS

CITY           SKY/WX    TMP DP  RH WIND       PRES   REMARKS
LAS VEGAS      PTCLDY    47  16  29 SW9       30.21R
RATON          PTCLDY    46  18  32 NW3       30.17R
CLAYTON        MOCLDY    48  23  37 E7        30.17R

$$
NMZ532>537-270300-
EASTCENTRAL PLAINS

CITY           SKY/WX    TMP DP  RH WIND       PRES   REMARKS
TUCUMCARI      CLEAR     54  18  24 S6        30.14R
CANNON AFB     NOT AVBL
CLOVIS AIRPORT PTCLDY    48  19  32 SW7       30.19R

$$
NMZ028-029-538-270300-
SOUTHEAST PLAINS

CITY           SKY/WX    TMP DP  RH WIND       PRES   REMARKS
ROSWELL        CLEAR     55  21  26 S9        30.20R
ARTESIA        CLEAR     52  23  32 S8        30.21R
CARLSBAD       CLEAR     53  29  39 S8        30.20R
HOBBS          CLEAR     54  18  24 SW7       30.22R


$$



USA.gov is the U.S. government's official web portal to all federal, state and local government web resources and services.